sat.trackr.live / text

‹ back to catalog

KANOPUS-V 5

NORAD 43876 · 2018-111A

PAYLOAD ACTIVE UNKNOWN

§ Identity

Operator
Country
CIS
Launch date
2018-12-27
Launch site
VOSTO
Launch vehicle
Mass (kg)
RCS (m²)

External: N2YO · Heavens-Above · Gunter

§ Orbital elements

Epoch: 2026-09-20T05:14:35.922048Z

Period
94.59 min
Inclination
97.3469°
Eccentricity
0.0001836
Mean motion
15.22364717 rev/d
Perigee alt
497.4 km
Apogee alt
500.0 km
Semi-major
6,876.8 km
B*
6.8790e-5
RAAN
166.7042°
Arg perigee
90.2942°
Mean anomaly
269.8505°
Rev number
42,924

§ Raw data

KANOPUS-V 51 43876U 18111A   26263.21847132  .00001519  00000+0  68790-4 0  99962 43876  97.3469 166.7042 0001836  90.2942 269.8505 15.22364717429242

JSON: /api/v1/satellites/43876 · /tle

For live sub-satellite position, see the globe view (requires WebGL).

§ Visibility from observer

Set your observer location to see the next 7 days of passes ≥ 10°. The values pass through the URL so the page stays shareable.

No JS? Fill the form by hand. The geolocation button needs JavaScript.